Regional Weather Roundup
Issued by NWS

Home | Current Version | Previous Version | Graphics & Text | Print | Product List | Glossary On
Versions: 1 2 3 4 5 6 7 8 9 10 11 12 13 14 15 16 17 18 19 20 21 22 23 24 25 26 27 28
000
ASUS45 KCYS 261110
RWRWY

WYOMING REGIONAL WEATHER ROUNDUP
NATIONAL WEATHER SERVICE CHEYENNE WY
400 AM MST SUN FEB 26 2017

NOTE:  "FAIR" INDICATES FEW OR NO CLOUDS BELOW 12,000 FEET
WITH NO SIGNIFICANT WEATHER AND/OR OBSTRUCTIONS TO VISIBILITY.

WYZ001-261200-
YELLOWSTONE NATIONAL PARK

CITY           SKY/WX    TMP DP  RH WIND       PRES   REMARKS
LK YELLOWSTONE   N/A      6   3  87 VRB3      29.72F
W YELLOWSTONE  NOT AVBL

$$
WYZ002>013-054>058-071-098>099-261200-
NORTHERN WYOMING

CITY           SKY/WX    TMP DP  RH WIND       PRES   REMARKS
JACKSON        CLOUDY    12  10  92 SW6       29.80S WCI   3
CODY           FAIR      22   2  42 SW20G26   29.70R WCI   7
GREYBULL       FAIR      20  11  68 S7        29.75S WCI  11
WORLAND        FAIR      13   8  81 NW3       29.74S
SHERIDAN       FAIR      13   5  70 SE8       29.70S WCI   2
BUFFALO        FAIR      16  -1  47 W6        29.68S WCI   7
GILLETTE       FAIR      16   6  65 SW16      29.70S WCI   1
HULETT         CLOUDY    23  16  74 SW8       29.71R WCI  14
NEWCASTLE      FAIR       9   7  92 E8        29.75S WCI  -4

$$
WYZ014>020-022>026-101>103-261200-
CENTRAL WYOMING

CITY           SKY/WX    TMP DP  RH WIND       PRES   REMARKS
BIG PINEY      FAIR     -10 -12  91 E5        29.81F WCI -22
PINEDALE       FAIR     -11 -15  84 NW3       29.81S
DUBOIS         FAIR       7  -4  61 NW21G26   29.69S WCI -13
LANDER         FAIR       8  -6  52 W10       29.71S WCI  -6
RIVERTON       FAIR       9  -4  55 SW13      29.71S WCI  -7
CASPER         FAIR      10  -1  61 SW15      29.74S WCI  -7
DOUGLAS        FAIR       2  -5  72 E3        29.76S

$$
WYZ021-027>030-104>119-261200-
SOUTHERN WYOMING

CITY           SKY/WX    TMP DP  RH WIND       PRES   REMARKS
EVANSTON       FAIR       4  -1  80 SW9       29.83F WCI -10
KEMMERER         N/A      0  -4  85 SW8       29.81F WCI -15
FORT BRIDGER   FAIR       6   0  79 W14       29.86F WCI -12
ROCK SPRINGS   FAIR       5   0  79 SW13      29.82S WCI -12
DIXON            N/A     -1  -6  80 CALM      29.90S
RAWLINS        FAIR       9   1  70 W20       29.77F WCI -10
SARATOGA       FAIR       9   3  78 W7        29.81S WCI  -3
LARAMIE        FAIR       8  -3  61 SW16      29.72S WCI -10
CHEYENNE       FAIR      12  -3  51 W13       29.74F WCI  -3
TORRINGTON     FAIR      16   5  62 W12       29.79R WCI   3
PINE BLUFFS    FAIR       9   0  66 W9G16     29.80R WCI  -5

$$




USA.gov is the U.S. government's official web portal to all federal, state and local government web resources and services.